Showing default

OPS 5712 (P/L 160), 2826

Orbit data source: Space-Track

OPS 5712 (P/L 160), 2826 is a payload satellite owned by NRL (US) in LEO that was launched on Wed, 31 May 1967 UTC via a THOR SLV-2 AGENA D launch vehicle from the Air Force Western Test Range (AFWTR). Payload-class satellites include a variety of spacecraft equipped with specific instruments for various scientific and technological missions. These include communications satellites like Starlink; space stations such as the ISS; scientific satellites like the Hubble; Earth observation satellites from companies like Planet Labs, Umbra, and HawkEye 360; GPS; miniature CubeSats for education and research; and military/defense satellites.

Loading next visibility...
Identifier
2826, 1967-053A
Orbit
LEO
Country
Flag of USUS
Related business
Manufacturer
NRL
Mission
Operational spacecraft
Bus & Motor
NRL 14"?, Unknown motor
Mass
5 kg wet, 5 kg dry
Launch date (UTC)
1967-05-31 (59 years ago)
Launch vehicle
THOR SLV-2 AGENA D
Launch site
Air Force Western Test Range (AFWTR)
Object type
Payload
Rocket body
Debris
Shape & HBR
Unknown
Radar Cross Section
Medium (>0.1 m² and <1 m²)

Expand to show TLE details & history
Last TLE update: 8 hours ago

TLE from 8 hours ago
0 OPS 5712 (P/L 160)
1 02826U 67053A   26120.24748490  .00006366  00000-0  91082-3 0  9992
2 02826  69.9156 155.7331 0002027 246.1632 113.9303 14.77049696 59159
Epoch: 2026-04-30T05:56Z
TLE epoch observation values (Epoch: 2026-04-30T05:56:22.695Z)
Latitude
-0.00003°
Longitude
-151.5583°
Altitude
641.624 km
Speed
7.537 km/s
True Right ascension
10h 22m 55s
True Declination
0° 00' 00"
Sunlit
Object was in full shadow at epoch
Visualization orbit readout
Latitude
Unknown
Longitude
Unknown
Altitude
Unknown
Speed
Unknown
Apparent Right ascension
Unknown
Apparent Declination
Unknown
Sunlit
N/A
Visualization observer readout
Local Sidereal Time
21:56:40
Azimuth
Unknown
Elevation
Unknown
Doppler factor
Unknown
Orbital elements
Apogee altitude
638.051 km
Perigee altitude
635.207 km
Semi-major axis
7,014.766 km
Eccentricity
0.0002
Inclination
69.9156°
RAAN
155.7331°
Arg. of periapsis
246.1632°
True anomaly
113.95153°
Mean anomaly
113.9303°
Eccentric anomaly
113.94091°
Mean motion
3.69423 °/min
Orbital period
97.45 mins
BSTAR
0.00091082
Loading maneuver chart data...
Computing Atmospheric mass density...
Loading historical data...
Loading historical data...
Loading historical data...
Loading historical data...
Loading historical data...
Loading historical data...
Loading historical data...

Documentation

Showing up to 5 results
|